Regional Weather Roundup
Issued by NWS

Home | Current Version | Previous Version | Graphics & Text | Print | Product List | Glossary On
Versions: 1 2 3 4 5 6 7 8 9 10 11 12 13 14 15 16 17 18 19 20 21 22 23 24 25 26 27 28 29 30 31 32 33 34 35 36 37 38 39 40 41 42 43 44 45 46 47 48 49 50
000
ASUS43 KBIS 251801
RWRND

NORTH DAKOTA REGIONAL WEATHER ROUNDUP
NATIONAL WEATHER SERVICE BISMARCK ND
1200 PM CST SUN JAN 25 2015

NOTE: "FAIR" INDICATES FEW OR NO CLOUDS BELOW 12,000 FEET WITH NO
SIGNIFICANT WEATHER AND/OR OBSTRUCTIONS TO VISIBILITY.


NDZ001>003-009>011-017-251900-
NORTHWEST NORTH DAKOTA

CITY           SKY/WX    TMP DP  RH WIND       PRES   REMARKS
WILLISTON      PTSUNNY   36  30  79 SW6       29.95F
6HR MIN TEMP:  32; 6HR MAX TEMP:  36;

MINOT          CLOUDY    27  24  89 S3        29.96F FOG
MINOT AFB      CLOUDY    26  26  99 S3        29.96F
$$

NDZ018>021-031>035-040>046-251900-
SOUTHWEST NORTH DAKOTA

CITY           SKY/WX    TMP DP  RH WIND       PRES   REMARKS
BISMARCK       CLOUDY    36  31  82 W9        30.01S
6HR MIN TEMP:  35; 6HR MAX TEMP:  37; 6HR PCP: TRACE;

DICKINSON      CLOUDY    37  29  72 W8        29.95F
GARRISON         N/A     33  30  88 W9        29.96F
6HR MIN TEMP:  32; 6HR MAX TEMP:  34;

HETTINGER ARPT MOSUNNY   38  28  67 W9        30.00F
$$

NDZ004>008-012>016-024-026-027-054-251900-
NORTHEAST NORTH DAKOTA

CITY           SKY/WX    TMP DP  RH WIND       PRES   REMARKS
GRAND FORKS    PTSUNNY   22  11  62 CALM      30.05R
GRND FRKS AFB  SUNNY     21  11  66 VRB2      30.06R
DEVILS LAKE    CLOUDY    19  14  79 SW7       29.98F WCI  10
$$

NDZ022-023-025-028>030-036>039-047>053-251900-
SOUTHEAST NORTH DAKOTA

CITY           SKY/WX    TMP DP  RH WIND       PRES   REMARKS
FARGO          SUNNY     25  14  63 CALM      30.04F
6HR MIN TEMP:  19; 6HR MAX TEMP:  25;

JAMESTOWN      CLOUDY    23  18  81 CALM      30.00F
$$



USA.gov is the U.S. government's official web portal to all federal, state and local government web resources and services.